[[{"header":{"parameterUnit":"m.s-1","parameterCategory":1,"la1":30.2991,"la2":30.254,"lo1":-89.0895,"lo2":-89.0444,"dy":0.0017,"dx":0.0017,"nx":28,"ny":28,"refTime":"2023-10-20T21:00:00:Z","depth":0,"parameterNumber":2,"parameterNumberName":"U-component_of_WINDS"},"data":[0,0,0,0,0,0,0,0,0,0,0,0,0,0,0,0,0,0,0,0,0,0,0,0,0,0,0,0,0,0,0,0,0,0,0,0,0,0,0,0,0,0,0,0,0,0,0,0,0,0,0,0,0,0,0,0,0,0,-3.2737,-3.2735,0,-3.258,-3.2578,-3.2576,-3.2462,-3.2461,-3.246,-3.2459,-3.2295,-3.2292,-3.2288,0,0,0,0,0,0,0,0,0,0,0,0,0,-3.2936,-3.2933,-3.2737,-3.2735,-3.2733,-3.258,-3.2578,-3.2575,-3.2462,-3.2461,-3.246,-3.2459,-3.2296,-3.2292,-3.2288,0,0,0,0,0,0,0,0,0,0,0,0,0,-3.2821,-3.2932,-3.2737,-3.2658,-3.2649,-3.258,-3.2578,-3.2575,-3.2462,-3.2461,-3.2459,-3.2458,-3.2297,-3.2292,-3.2287,-3.2284,0,0,-3.2271,-3.2269,0,0,0,0,0,0,0,0,-3.2828,-3.2814,-3.2672,-3.2663,-3.2654,-3.2539,-3.2587,-3.2477,-3.2463,-3.2533,-3.2459,-3.2457,-3.2377,-3.2365,-3.2339,-3.2276,-3.2269,-3.2271,-3.2268,-3.2265,-3.2264,0,0,0,0,0,0,0,-3.2836,-3.282,-3.2675,-3.267,-3.2659,-3.2629,-3.2611,-3.2566,-3.2465,-3.2527,-3.2518,-3.2501,-3.2372,-3.2344,-3.2334,-3.2266,-3.2271,-3.2266,-3.2263,-3.2261,-3.2194,-3.2195,0,0,0,0,0,0,-3.2857,-3.2827,-3.268,-3.267,-3.2739,-3.2627,-3.2607,-3.2577,-3.2465,-3.2447,-3.2503,-3.2497,-3.2354,-3.234,-3.2328,-3.2318,-3.2265,-3.2261,-3.2258,-3.2192,-3.2194,-3.2195,0,0,0,0,0,0,-3.2861,-3.2845,-3.2686,-3.2746,-3.2724,-3.2625,-3.2592,-3.2575,-3.2547,-3.2447,-3.2428,-3.2493,-3.2352,-3.2335,-3.2296,-3.2311,-3.2258,-3.2253,-3.2191,-3.2193,-3.2195,-3.2297,0,0,0,0,0,0,-3.2868,-3.2847,-3.2846,-3.2747,-3.2721,-3.2658,-3.2593,-3.2573,-3.2539,-3.2529,-3.2433,-3.2416,-3.235,-3.2304,-3.2291,-3.2302,-3.2249,-3.2189,-3.2192,-3.2194,-3.2292,-3.2303,-3.2311,0,0,0,0,0,-3.2875,-3.288,-3.2846,-3.2829,-3.2717,-3.2659,-3.2644,-3.2569,-3.254,-3.2538,-3.2473,-3.2419,-3.2311,-3.2301,-3.2285,-3.2295,-3.2188,-3.2191,-3.2194,-3.2288,-3.2301,-3.2311,0,0,0,0,0,0,-3.2981,-3.2865,-3.2827,-3.28,-3.274,-3.264,-3.2634,-3.2584,-3.2531,-3.2524,-3.2432,-3.2411,-3.2382,-3.2334,-3.2326,-3.2286,-3.2242,-3.2242,-3.232,-3.2331,-3.234,-3.2353,-3.2245,0,0,0,0,0,-3.3002,-3.2965,-3.2865,-3.2851,-3.2823,-3.2734,-3.2706,-3.2653,-3.2587,-3.2561,-3.2494,-3.2432,-3.2383,-3.2354,-3.2304,-3.2284,-3.2262,-3.2282,-3.2292,-3.2301,-3.2303,-3.229,-3.2299,-3.2205,-3.2205,-3.2205,0,0,-3.3043,-3.2975,-3.2958,-3.2871,-3.2818,-3.2782,-3.2714,-3.2678,-3.265,-3.2555,-3.2515,-3.2464,-3.2387,-3.2359,-3.2342,-3.2318,-3.2323,-3.2304,-3.2312,-3.2309,-3.2294,-3.2303,-3.2311,-3.2207,-3.2207,-3.2207,0,0,-3.3101,-3.3045,-3.3029,-3.2978,-3.29,-3.2841,-3.2837,-3.2743,-3.2706,-3.2664,-3.2593,-3.2558,-3.2476,-3.2426,-3.2389,-3.2428,-3.2377,-3.2414,-3.2465,-3.2454,-3.2462,-3.2468,-3.2484,-3.249,-3.2415,-3.2416,-3.2416,0,-3.3163,-3.3106,-3.3026,-3.2995,-3.2959,-3.2872,-3.2854,-3.2808,-3.2718,-3.2695,-3.2668,-3.2565,-3.2508,-3.2467,-3.2476,-3.2449,-3.2442,-3.2426,-3.2467,-3.2472,-3.2477,-3.2491,-3.2497,-3.2421,-3.242,-3.242,-3.2419,0,-3.3187,-3.3149,-3.3144,-3.3061,-3.3024,-3.2999,-3.2915,-3.2886,-3.2836,-3.278,-3.2739,-3.2666,-3.2601,-3.2587,-3.2537,-3.2539,-3.2526,-3.2485,-3.2439,-3.2493,-3.2505,-3.2509,-3.2429,-3.2427,-3.2425,-3.2424,0,0,-3.3309,-3.3182,-3.3182,-3.3144,-3.3051,-3.3019,-3.299,-3.2928,-3.2907,-3.2846,-3.2821,-3.2754,-3.2715,-3.2674,-3.2617,-3.2607,-3.2645,-3.2566,-3.2563,-3.2586,-3.2645,-3.268,-3.2687,-3.2609,-3.261,-3.261,-3.2652,0,-3.3355,-3.3301,-3.3228,-3.3198,-3.3163,-3.3079,-3.3054,-3.2994,-3.294,-3.2901,-3.284,-3.2796,-3.2747,-3.2722,-3.2708,-3.2644,-3.2656,-3.2639,-3.2585,-3.2585,-3.2611,-3.2693,-3.2729,-3.2772,-3.2656,-3.2657,-3.2657,0,-3.3402,-3.3349,-3.3316,-3.3228,-3.321,-3.3189,-3.3126,-3.309,-3.302,-3.2981,-3.2936,-3.2875,-3.284,-3.2797,-3.2749,-3.2739,-3.2712,-3.2677,-3.2677,-3.2671,-3.2627,-3.2693,-3.2784,-3.2792,-3.2663,-3.2663,-3.2662,0,-3.3498,-3.3417,-3.3388,-3.3357,-3.3252,-3.324,-3.3196,-3.3124,-3.3092,-3.3036,-3.3014,-3.2954,-3.2922,-3.2877,-3.2801,-3.2777,-3.2762,-3.2712,-3.273,-3.2732,-3.2733,-3.2735,-3.2825,-3.2711,-3.271,-3.271,-3.271,0,-3.3559,-3.3543,-3.343,-3.3413,-3.3392,-3.3307,-3.3289,-3.3236,-3.3173,-3.3144,-3.3066,-3.304,-3.294,-3.2902,-3.2842,-3.2812,-3.2797,-3.2765,-3.275,-3.2774,-3.2779,-3.2758,-3.2754,-3.2712,-3.2712,-3.2711,-3.2711,0,-3.3665,-3.3588,-3.3551,-3.3455,-3.343,-3.342,-3.3337,-3.3317,-3.3257,-3.3221,-3.3207,-3.3115,-3.3066,-3.2985,-3.2912,-3.2871,-3.2854,-3.2826,-3.2878,-3.287,-3.2893,-3.2893,-3.2975,-3.2983,-3.2862,-3.2863,-3.2864,0,-3.371,-3.3697,-3.3599,-3.3575,-3.3534,-3.3494,-3.3461,-3.3375,-3.3343,-3.3263,-3.3253,-3.3197,-3.315,-3.3075,-3.3001,-3.2945,-3.2917,-3.2949,-3.2908,-3.2933,-3.2921,-3.2925,-3.2924,-3.296,-3.2962,-3.2964,-3.2965,0,-3.3801,-3.3763,-3.3719,-3.3662,-3.3625,-3.3575,-3.3521,-3.3505,-3.3407,-3.3375,-3.3325,-3.3288,-3.3214,-3.3161,-3.3094,-3.3047,-3.2991,-3.2978,-3.2979,-3.3006,-3.3038,-3.3024,-3.2908,-3.2977,-3.2976,-3.2975,-3.2974,-3.2974,-3.3879,-3.3864,-3.3794,-3.3747,-3.3698,-3.365,-3.3626,-3.3565,-3.3522,-3.3456,-3.3407,-3.3361,-3.3291,-3.3196,-3.3152,-3.3114,-3.3088,-3.309,-3.3091,-3.3094,-3.3104,-3.3041,-3.3101,-3.31,-3.31,-3.3099,-3.3099,0,-3.3968,-3.3919,-3.3877,-3.3805,-3.3769,-3.3718,-3.3655,-3.3628,-3.3589,-3.3529,-3.3484,-3.3426,-3.3374,-3.3296,-3.3238,-3.3223,-3.3196,-3.3211,-3.3213,-3.3204,-3.3129,-3.3135,-3.3234,-3.3234,-3.3234,-3.3234,-3.3234,-3.3234,-3.4011,-3.3983,-3.3938,-3.3884,-3.3834,-3.3789,-3.3759,-3.3714,-3.3666,-3.3606,-3.3563,-3.3512,-3.3445,-3.3381,-3.3331,-3.3309,-3.3293,-3.3318,-3.3288,-3.3221,-3.3208,-3.3197,-3.3202,-3.3314,-3.3314,-3.3366,-3.3367,-3.3367]},{"header":{"parameterUnit":"m.s-1","parameterCategory":1,"la1":30.2991,"la2":30.254,"lo1":-89.0895,"lo2":-89.0444,"dy":0.0017,"dx":0.0017,"nx":28,"ny":28,"refTime":"2023-10-20T21:00:00:Z","depth":0,"parameterNumber":3,"parameterNumberName":"V-component_of_WINDS"},"data":[0,0,0,0,0,0,0,0,0,0,0,0,0,0,0,0,0,0,0,0,0,0,0,0,0,0,0,0,0,0,0,0,0,0,0,0,0,0,0,0,0,0,0,0,0,0,0,0,0,0,0,0,0,0,0,0,0,0,-0.4403,-0.4403,0,-0.4458,-0.4459,-0.4459,-0.4448,-0.4447,-0.4446,-0.4445,-0.4503,-0.4505,-0.4507,0,0,0,0,0,0,0,0,0,0,0,0,0,-0.4286,-0.4288,-0.4402,-0.4403,-0.4404,-0.4458,-0.4459,-0.446,-0.4448,-0.4447,-0.4446,-0.4445,-0.4502,-0.4505,-0.4508,0,0,0,0,0,0,0,0,0,0,0,0,0,-0.4339,-0.4289,-0.4402,-0.4405,-0.4405,-0.4458,-0.4459,-0.446,-0.4448,-0.4447,-0.4445,-0.4444,-0.4501,-0.4504,-0.4508,-0.4562,0,0,-0.4519,-0.4521,0,0,0,0,0,0,0,0,-0.4336,-0.4343,-0.4404,-0.4405,-0.4406,-0.4445,-0.4439,-0.4494,-0.4449,-0.4432,-0.4445,-0.4443,-0.4485,-0.449,-0.4503,-0.4565,-0.4567,-0.452,-0.4522,-0.4524,-0.4525,0,0,0,0,0,0,0,-0.4332,-0.434,-0.4424,-0.4405,-0.4406,-0.4403,-0.4409,-0.4449,-0.4466,-0.4433,-0.4433,-0.4439,-0.4485,-0.45,-0.4505,-0.4568,-0.452,-0.4523,-0.4525,-0.4527,-0.4675,-0.4677,0,0,0,0,0,0,-0.4327,-0.4337,-0.4423,-0.4426,-0.4366,-0.4406,-0.4413,-0.4434,-0.4466,-0.4469,-0.4441,-0.4439,-0.4494,-0.45,-0.4507,-0.4571,-0.4524,-0.4527,-0.4529,-0.4673,-0.4675,-0.4677,0,0,0,0,0,0,-0.4325,-0.4335,-0.442,-0.4382,-0.4392,-0.441,-0.4433,-0.4436,-0.445,-0.4471,-0.4474,-0.4453,-0.4493,-0.4501,-0.4548,-0.4573,-0.4529,-0.4532,-0.4671,-0.4674,-0.4676,-0.4701,0,0,0,0,0,0,-0.4322,-0.4334,-0.4355,-0.4382,-0.4394,-0.4461,-0.4435,-0.4438,-0.4457,-0.4455,-0.4484,-0.4487,-0.4493,-0.4542,-0.4552,-0.4577,-0.4535,-0.4669,-0.4672,-0.4675,-0.4698,-0.4704,-0.4709,0,0,0,0,0,-0.4318,-0.436,-0.4356,-0.4367,-0.4421,-0.4463,-0.447,-0.4475,-0.4459,-0.448,-0.4493,-0.4486,-0.4569,-0.4547,-0.4558,-0.4585,-0.4668,-0.4671,-0.4675,-0.4695,-0.4703,-0.4709,0,0,0,0,0,0,-0.4336,-0.4364,-0.436,-0.4413,-0.4435,-0.4461,-0.4487,-0.4483,-0.4511,-0.4508,-0.4514,-0.452,-0.4568,-0.4581,-0.4556,-0.4638,-0.4616,-0.4622,-0.4628,-0.4635,-0.464,-0.4636,-0.4538,0,0,0,0,0,-0.4346,-0.4378,-0.44,-0.4445,-0.4456,-0.447,-0.4488,-0.449,-0.4514,-0.4524,-0.4541,-0.4564,-0.4595,-0.4616,-0.4646,-0.47,-0.4705,-0.4723,-0.4729,-0.4733,-0.4739,-0.4767,-0.4775,-0.469,-0.469,-0.469,0,0,-0.4368,-0.4387,-0.4407,-0.4449,-0.4467,-0.4499,-0.4478,-0.4514,-0.4538,-0.4529,-0.4574,-0.4587,-0.4614,-0.4664,-0.4687,-0.4677,-0.4763,-0.4738,-0.4742,-0.4745,-0.4772,-0.478,-0.4787,-0.4692,-0.4692,-0.4691,0,0,-0.4424,-0.4441,-0.448,-0.4498,-0.4525,-0.4533,-0.4543,-0.4569,-0.4577,-0.4622,-0.4616,-0.4644,-0.4698,-0.4717,-0.4734,-0.4795,-0.479,-0.4805,-0.4834,-0.4862,-0.4869,-0.4875,-0.4896,-0.4904,-0.481,-0.481,-0.481,0,-0.4447,-0.4496,-0.45,-0.4536,-0.4555,-0.4548,-0.4587,-0.4604,-0.464,-0.4653,-0.464,-0.4707,-0.4724,-0.4778,-0.4793,-0.4807,-0.4818,-0.4802,-0.4868,-0.4874,-0.4879,-0.49,-0.4908,-0.4812,-0.4811,-0.4811,-0.4811,0,-0.4523,-0.4557,-0.4585,-0.4618,-0.464,-0.4677,-0.4687,-0.4708,-0.4708,-0.4718,-0.4763,-0.4784,-0.4817,-0.483,-0.4831,-0.4884,-0.4877,-0.4866,-0.4844,-0.4889,-0.4908,-0.4916,-0.4814,-0.4813,-0.4813,-0.4812,0,0,-0.4593,-0.4628,-0.4638,-0.4653,-0.4682,-0.4708,-0.4744,-0.4777,-0.4795,-0.4819,-0.485,-0.4895,-0.4884,-0.4903,-0.4906,-0.493,-0.4977,-0.4916,-0.4917,-0.4927,-0.5037,-0.5045,-0.5054,-0.4973,-0.4975,-0.4976,-0.5034,0,-0.4651,-0.4715,-0.472,-0.4778,-0.4809,-0.4802,-0.4834,-0.4855,-0.4864,-0.4892,-0.4903,-0.4934,-0.4919,-0.493,-0.4954,-0.4966,-0.4999,-0.4962,-0.5001,-0.5003,-0.4995,-0.5064,-0.5073,-0.5127,-0.5042,-0.5043,-0.5044,0,-0.4728,-0.4754,-0.4815,-0.4838,-0.4851,-0.488,-0.4909,-0.4936,-0.4959,-0.4964,-0.4985,-0.4983,-0.502,-0.4997,-0.5048,-0.5022,-0.5038,-0.5047,-0.5049,-0.5053,-0.5026,-0.507,-0.5144,-0.5152,-0.5056,-0.5055,-0.5054,0,-0.4772,-0.4823,-0.4865,-0.4878,-0.4907,-0.4927,-0.494,-0.4961,-0.498,-0.5006,-0.5018,-0.5048,-0.5064,-0.5087,-0.5094,-0.5076,-0.5145,-0.5122,-0.515,-0.515,-0.5165,-0.5164,-0.5243,-0.5175,-0.5175,-0.5175,-0.5175,0,-0.4837,-0.4874,-0.4885,-0.4912,-0.4953,-0.4958,-0.4999,-0.501,-0.5029,-0.5058,-0.5054,-0.508,-0.5088,-0.5116,-0.5121,-0.5162,-0.517,-0.5175,-0.5176,-0.5175,-0.5174,-0.5186,-0.5182,-0.5177,-0.5177,-0.5176,-0.5176,0,-0.4894,-0.4903,-0.4949,-0.4972,-0.4978,-0.5008,-0.5027,-0.5052,-0.5061,-0.5097,-0.5105,-0.5119,-0.5152,-0.516,-0.5199,-0.5203,-0.5251,-0.5249,-0.5243,-0.5243,-0.5271,-0.5268,-0.5361,-0.5373,-0.5297,-0.5298,-0.5298,0,-0.4934,-0.4963,-0.4988,-0.5007,-0.502,-0.505,-0.5069,-0.5074,-0.5094,-0.5122,-0.5144,-0.5176,-0.5201,-0.5253,-0.5267,-0.5296,-0.5295,-0.5325,-0.5299,-0.5297,-0.5295,-0.5293,-0.5296,-0.533,-0.5331,-0.5331,-0.5332,0,-0.5005,-0.5008,-0.5035,-0.5064,-0.5087,-0.511,-0.5132,-0.5147,-0.5155,-0.5178,-0.521,-0.523,-0.527,-0.5301,-0.5331,-0.5344,-0.5339,-0.534,-0.5348,-0.5348,-0.5343,-0.5346,-0.5256,-0.5338,-0.5337,-0.5337,-0.5336,-0.5336,-0.5055,-0.508,-0.5101,-0.5132,-0.5148,-0.5169,-0.5193,-0.5205,-0.5232,-0.5264,-0.5266,-0.5301,-0.5323,-0.5362,-0.5377,-0.5404,-0.5395,-0.5407,-0.541,-0.5413,-0.5415,-0.5338,-0.541,-0.541,-0.541,-0.5409,-0.5409,0,-0.5125,-0.5139,-0.5166,-0.5197,-0.5221,-0.5214,-0.5237,-0.5258,-0.5289,-0.5309,-0.5334,-0.5372,-0.5402,-0.5418,-0.5448,-0.5467,-0.5465,-0.5474,-0.5473,-0.5476,-0.5422,-0.5412,-0.5475,-0.5475,-0.5475,-0.5475,-0.5475,-0.5475,-0.5165,-0.5206,-0.5211,-0.526,-0.5273,-0.5308,-0.5322,-0.534,-0.5357,-0.5398,-0.5423,-0.5433,-0.5451,-0.5483,-0.551,-0.5514,-0.5525,-0.5535,-0.5538,-0.5487,-0.548,-0.5474,-0.5464,-0.5537,-0.5537,-0.5589,-0.559,-0.559]}]]